Regional Weather Roundup
Issued by NWS Pendleton, OR

Home | Current Version | Previous Version | Text Only | Print | Product List | Glossary On
Versions: 1 2 3 4 5 6 7 8 9 10 11 12 13 14 15 16 17 18 19 20 21 22 23 24 25 26 27 28 29 30 31 32 33 34 35 36 37 38 39 40 41 42 43 44 45 46 47 48 49 50
000
ASUS46 KPDT 280325
RWRPDT
PENDLETON REGIONAL WEATHER ROUNDUP
NATIONAL WEATHER SERVICE PENDLETON OREGON
800 PM PDT TUE SEP 27 2016

NOTE: FAIR INDICATES FEW OR NO CLOUDS BELOW 12,000 FEET WITH NO
SIGNIFICANT WEATHER AND/OR OBSTRUCTIONS TO VISIBILITY.

# INDICATES UNOFFICIAL STATION AND DATA

WAZ520-280410-
EAST SLOPES OF WASHINGTON CASCADES

CITY            SKY/WX      TMP DP  RH  WIND    PRES   REMARKS
#CLE ELUM HS    N/A         58  46  64  NW1     30.02R
#CLE ELUM LAKE  N/A         54  46  74  CALM    29.97R
#GLENWOOD       N/A         55  47  74  CALM    29.97R
#MANASTASH CYN  N/A         56  40  55  CALM    30.05R
#NELSON 3SW     N/A         51  43  74  CALM    30.20S
#NILE           N/A         60  46  60  SW2     29.29R
#RONALD 2NW     N/A         55  N/A N/A NE1     30.13R
#TEANAWAY 4NE   N/A         58  48  69  CALM    N/A
#TROUT LAKE 1NE N/A         59  50  72  CALM    29.96S
#TROUT LAKE 1E  N/A         60  51  72  CALM    29.99S
$$

WAZ521-280410-
SIMCOE HIGHLANDS

CITY            SKY/WX      TMP DP  RH  WIND    PRES   REMARKS
#CENTERVILLE 1SWN/A         63  49  60  CALM    29.92R
#GOLDENDALE 1NE N/A         67  31  26  CALM    N/A
#GOLDENDALE 4W  N/A         66  56  70  CALM    30.04R
#GOODNOE HILLS  N/A         70  47  44  W9      N/A
#LYLE 6NE       N/A         63  53  70  S6      29.92S
$$

WAZ026-280410-
KITTITAS VALLEY

CITY            SKY/WX      TMP DP  RH  WIND    PRES   REMARKS
#ELLENSBURG CWU N/A         63  47  56  N12     29.92R
#ELLENSBURG 3NE N/A         61  48  62  N7      30.03R
#ELLENSBURG 1E  N/A         62  N/A N/A NW1     N/A
#KITTITAS 4N    N/A         59  45  60  NW1     30.03S
#KITTITAS 3S    N/A         60  47  62  CALM    29.96R
#THORP 6N       N/A         58  46  64  NW9     29.99R
$$

WAZ027-280410-
YAKIMA VALLEY

CITY            SKY/WX      TMP DP  RH  WIND    PRES   REMARKS
SUNNYSIDE AP    CLEAR       63  48  58  N6      29.96R HAZE
YAKIMA AIRPORT  CLEAR       68  43  40  W8      30.00R
YAKIMA-VAGABOND CLEAR       68  40  36  E10     29.99R
#GRANDVIEW      N/A         70  46  42  CALM    29.95R
#MABTON         N/A         67  51  56  CALM    29.95R
#NACHES 2SW     N/A         64  47  54  W10     30.00S
#TERRACE HTS    N/A         69  44  40  CALM    29.90R
#TOPPENISH      N/A         68  48  49  CALM    29.85R
#WEST VALLEY    N/A         68  45  44  CALM    29.94R
#WHITE SWAN 5E  N/A         69  49  49  CALM    29.95R
#WILEY CITY 3W  N/A         65  40  40  CALM    29.97R
$$

WAZ028-280410-
LOWER COLUMBIA BASIN...WASHINGTON

CITY            SKY/WX      TMP DP  RH  WIND    PRES   REMARKS
PASCO           CLEAR       69  54  59  CALM    29.94S
PROSSER AWOS    N/A         68  54  61  N5      29.99R
RICHLAND AWOS   CLEAR       69  53  57  N6      29.95R
#BENTON CITY    N/A         72  52  49  CALM    29.84R
#CONNELL 5N     N/A         68  45  44  CALM    29.94R
#CONNELL 5NW    N/A         65  47  52  CALM    29.90R
#ELTOPIA 6NW    N/A         73  48  41  CALM    28.94R
#KAHLOTUS       N/A         73  47  40  CALM    29.93R
#KENNEWICK 3S   N/A         72  52  49  CALM    29.92S
#PATERSON       N/A         75  54  48  E5      29.91R
#SAGEMOOR 2W    N/A         67  52  59  NW1     29.78S
#TOUCHET 2S     N/A         66  51  58  CALM    29.91R
#WEST PASCO     N/A         68  52  57  CALM    29.92S
$$

WAZ029-280410-
FOOTHILLS OF THE BLUES...WASHINGTON

CITY            SKY/WX      TMP DP  RH  WIND    PRES   REMARKS
WALLA WALLA AP  CLEAR       68  50  53  E6      29.97S
#CLYDE 6NW      N/A         63  46  54  CALM    29.92R
#DAYTON SCHOOL  N/A         66  44  45  N1      30.00R
#LOWDEN 2SE     N/A         66  53  63  CALM    29.91R
#PLEASANT VIEW 1N/A         73  47  40  W3      29.95R
#PRESCOTT       N/A         61  49  65  CALM    29.93R
#WHITMAN COLLEGEN/A         72  53  51  S3      29.97R
#WAITSBURG 5S   N/A         65  45  48  N2      30.01R
#WALLA WALLA U  N/A         72  55  55  CALM    29.92R
#WHITMAN MISSIONN/A         70  55  59  CALM    29.93S
$$

WAZ030-280410-
BLUE MOUNTAINS...WASHINGTON

CITY            SKY/WX      TMP DP  RH  WIND    PRES   REMARKS
#DIXIE 5SE      N/A         67  49  52  E3      29.99S
$$

ORZ009-041-WAZ024-280410-
COLUMBIA RIVER GORGE

CITY            SKY/WX      TMP DP  RH  WIND    PRES   REMARKS
HOOD RIVER AP   CLEAR       66  54  65  NW3     30.01S
THE DALLES AP   CLEAR       71  51  49  W7      29.96R
#ARLINGTON AIRPON/A         72  42  34  W3      29.93R
#CELILO DOT     N/A         72  50  46  SW7     N/A
#MOSIER 1S      N/A         66  43  43  NW2     30.00R
#MURDOCK        N/A         70  56  61  NW16G25 29.92R
#RUFUS DOT      N/A         77  48  36  W13     N/A
#SMITHVILLE     N/A         70  54  57  N15G26  29.89R

$$

ORZ510-280410-
NORTH CENTRAL OREGON

CITY            SKY/WX      TMP DP  RH  WIND    PRES   REMARKS
#ANTELOPE       N/A         67  45  45  N7      29.76R
#COW CYN RST AREN/A         67  N/A N/A N10     N/A
#DUFUR 9E       N/A         62  47  58  W5      29.99R
#GRASS VALLEY 1SN/A         63  44  50  N1      29.97R
#KENT DOT       N/A         63  35  35  N8      N/A
#MAUPIN SCHOOL  N/A         72  50  46  CALM    30.01R
#SHANIKO 5WSW   N/A         64  37  37  N14     N/A
#TYGH VALLEY 2NEN/A         71  50  47  N13     29.92R
#WAPANITIA AIRPON/A         64  47  54  CALM    29.93R
#WASCO DOT      N/A         67  47  49  W5      N/A
#WASCO AIRPORT  N/A         66  45  47  W13     N/A
#WASCO 5NE      N/A         65  48  54  W7      29.92S
$$

ORZ511-280410-
CENTRAL OREGON

CITY            SKY/WX      TMP DP  RH  WIND    PRES   REMARKS
BEND AIRPORT    CLEAR       68  43  40  NW3     30.05R
MADRAS AIRPORT  CLEAR       72  50  46  N8      30.02R
PRINEVILLE AP   CLEAR       68  41  37  NW3     30.03R
REDMOND AIRPORT CLEAR       70  40  34  NW5     30.02R
#ASHWOOD SCHOOL N/A         71  45  39  CALM    29.97R
#BEND 1SW       N/A         63  45  52  N1      N/A
#BEND-AWBREY    N/A         66  46  48  CALM    29.89R
#CULVER         N/A         66  47  50  CALM    29.84R
#CULVER 8W      N/A         70  50  49  CALM    30.02R
#LAKE BILLY CHINN/A         70  N/A N/A N9      30.07R
#PRINEVILLE 3N  N/A         71  45  39  NW3     29.89R

$$


ORZ509-280410-
EAST SLOPES OF OREGON CASCADES

CITY            SKY/WX      TMP DP  RH  WIND    PRES   REMARKS
#BLUE BOX PASS  N/A         53  N/A N/A CALM    N/A
#CAMP SHERMAN   N/A         62  47  58  CALM    30.05R
#LA PINE DOT    N/A         69  36  30  NW3     N/A
#LA PINE 4NW    N/A         63  44  50  CALM    29.95R
#LAVA BUTTE DOT N/A         63  39  41  CALM    N/A
#SISTERS AIRPOR N/A         65  51  60  N1      30.17S
#SISTERS ODOT   N/A         67  N/A N/A CALM    N/A
#SISTERS 3N     N/A         62  41  46  CALM    30.03S
#SUNRIVER       N/A         64  47  54  CALM    29.96R
#SUTTLE LK DOT  N/A         60  52  75  NW3     N/A
#TUMALO 3W      N/A         70  45  41  N2      29.76R
#WANOGA BUTTE D N/A         60  42  51  NE2     N/A

$$

ORZ044-280410-
LOWER COLUMBIA BASIN...OREGON

CITY            SKY/WX      TMP DP  RH  WIND    PRES   REMARKS
HERMISTON       CLEAR       65  51  60  E3      29.94S
#BOARDMAN SCHOOLN/A         67  55  65  CALM    29.92R
#BOARDMAN 8SW   N/A         71  50  47  N2      29.92R
#I-84 EX 198 DOTN/A         71  51  49  NE2     N/A
#UMATILLA       N/A         72  49  44  CALM    29.85S
$$

ORZ507-280410-
NORTHERN FOOTHILLS OF THE BLUES

CITY            SKY/WX      TMP DP  RH  WIND    PRES   REMARKS
PENDLETON AIRPT CLEAR       68  46  45  N5      29.98R
#ADAMS 3WNW     N/A         63  48  58  CALM    29.92R
#ATHENA         N/A         63  50  62  CALM    29.96R
#CAYUSE         N/A         69  50  51  E1      29.91R
#HELIX SCHOOL   N/A         66  49  54  N3      29.93
#HELIX 3N       N/A         64  48  56  N1      29.97S
#HELIX 6SW      N/A         62  46  56  CALM    29.98S
#HOLDMAN 5SE    N/A         62  47  58  CALM    29.97R
#HOLDMAN 6E     N/A         68  47  47  CALM    29.74R
#M-F GROVE ELEM N/A         67  49  52  CALM    29.95S
#M-FREEWATER 5SEN/A         65  53  65  CALM    29.98R
#PENDLETON DNTN N/A         69  45  42  CALM    29.98S
#PDT AQUATIC CTRN/A         68  42  39  CALM    30.02R
#PDT SUNRIDGE   N/A         67  48  50  CALM    29.98R
#PENDLETON 7NW  N/A         64  47  54  CALM    30.62S
#PILOT ROCK 1S  N/A         62  44  52  E5      30.01R
#PILOT ROCK     N/A         65  46  50  SW2     30.02S
#TUTUILLA       N/A         63  48  58  CALM    29.94S
#UMAPINE 2E     N/A         62  52  70  CALM    29.92S
#WESTON SCHOOL  N/A         65  47  52  CALM    29.85R

$$

ORZ508-280410-
SOUTHERN FOOTHILLS OF THE BLUES

CITY            SKY/WX      TMP DP  RH  WIND    PRES   REMARKS
LEXINGTON       CLEAR       68  45  44  SE5     30.02R
#AJAX           N/A         65  34  31  W2      27.78R
#CONDON SCHOOL  N/A         65  39  38  N5      30.00R
#CONDON 5W      N/A         64  29  27  N9      30.03S
#FOSSIL SCHOOL  N/A         68  36  31  CALM    29.98R
#HEPPNER EOC    N/A         68  44  42  CALM    29.87R
#HEPPNER 4NE    N/A         62  45  54  SE2     29.91S
#RUGGS 5NE      N/A         66  40  38  E2      30.17F
#RUGGS 2SW      N/A         65  37  35  W1      29.94R

$$

ORZ502-503-280410-
BLUE MOUNTAINS

CITY            SKY/WX      TMP DP  RH  WIND    PRES   REMARKS
MEACHAM         CLEAR       57  43  59  CALM    30.10R
#BATTLE MTN DOT N/A         60  42  51  N3      N/A
#CUTSFORTH PARK N/A         52  46  80  CALM    29.88R
#GREENHORN 9SW  N/A         57  38  49  CALM    26.26R
#HARDMAN 10S    N/A         60  37  42  CALM    30.02R
#HEPPNER 15SE   N/A         55  43  64  CALM    30.03R
#LADD CYN SMT   N/A         63  43  48  N3      N/A
#LADD CREEK ODOTN/A         69  46  44  S5      N/A
#LONG CREEK HS  N/A         65  47  52  NW6     30.07R
#N POWDER DOT   N/A         65  45  48  NW3     N/A
#PIKES PEAK     N/A         67  46  47  CALM    27.99S
#TOLLGATE       N/A         54  46  74  CALM    30.00R
#TROY SCHOOL    N/A         72  51  48  CALM    29.77R
#UKIAH          N/A         61  47  60  CALM    29.89R
#WESTON 4E      N/A         64  49  58  CALM    29.87S
$$

ORZ505-280410-
JOHN DAY BASIN

CITY            SKY/WX      TMP DP  RH  WIND    PRES   REMARKS
JOHN DAY        CLEAR       71  41  34  CALM    30.05R
#DAYVILLE SCHOOLN/A         75  39  27  W1      29.95R
#MITCHELL       N/A         64  48  56  CALM    30.19R
#MITCHELL 8NW   N/A         70  43  38  CALM    30.06R
#MONUMENT HS    N/A         75  41  29  E2      29.91R
#MT. VERNON 5SE N/A         66  42  42  CALM    30.02R
#SPRAY SCHOOL   N/A         74  N/A N/A CALM    N/A
$$

ORZ506-280410-
OCHOCO AND JOHN DAY HIGHLANDS

CITY            SKY/WX      TMP DP  RH  WIND    PRES   REMARKS
#BUCK CREEK DOT N/A         74  37  26  CALM    N/A
#HORSE RIDGE DO N/A         68  41  37  NW3     N/A
#KEYES SMT DOT  N/A         67  42  40  S2      N/A
#PAULINA SCHOOL N/A         74  41  30  N6      N/A
#PINE MTN OBS   N/A         60  42  51  NW3     N/A
#SENECA         N/A         63  N/A N/A CALM    N/A
#SENECA 9NW     N/A         61  39  44  CALM    29.93R
$$

ORZ049-280410-
GRANDE RONDE VALLEY

CITY            SKY/WX      TMP DP  RH  WIND    PRES   REMARKS
LA GRANDE       CLEAR       70  43  38  NW8     30.03R
#COVE SCHOOL    N/A         64  47  54  CALM    30.04R
#COVE 6NW       N/A         68  48  49  CALM    29.90R
#ELGIN 3N       N/A         66  44  45  CALM    30.00R
#ELGIN 1E       N/A         72  48  43  CALM    N/A
#IMBLER SCHOOL  N/A         69  47  45  CALM    29.98R
#ISLAND CITY 4N N/A         63  53  70  CALM    30.05S
#LADD CYN DOT   N/A         71  48  44  S5      N/A
#LA GRANDE ELEM N/A         72  49  44  W12     30.04R
#UNION 1S       N/A         67  49  52  CALM    29.89R
$$

ORZ050-280410-
WALLOWA COUNTY

CITY            SKY/WX      TMP DP  RH  WIND    PRES   REMARKS
JOSEPH AIRPORT  CLEAR       61  43  51  S8      30.11R
#IMNAHA SCHOOL  N/A         75  45  34  CALM    29.96R
#IMNAHA 10S     N/A         68  45  44  SW3     30.01R
#JOSEPH 3N      N/A         55  42  61  E1      30.10R
#JOSEPH 3W      N/A         62  45  54  SW2     29.96S
#LOSTINE        N/A         63  46  54  CALM    29.75R
#LOSTINE 3SE    N/A         59  43  55  SE2     30.05R
#MT HOWARD 8000 N/A         55  38  53  CALM    30.35R
#PROMISE 1S     N/A         65  46  50  CALM    30.04R
#WALLOWA SCHOOL N/A         61  49  65  CALM    29.99R



$$



USA.gov is the U.S. government's official web portal to all federal, state and local government web resources and services.